Overview Statistics Trail Chart Weather Telemetry Raw packets
 

This is the latest recevied weather packets stored in our database for station/object W5ITZ. If no packets are shown the sender has not sent any weather packets the latest 10 day(s).

<< 13 14 15 16 17 18 19 >>
Time Temp. Humidity Pressure Rain* Wind** Luminosity Snow
1788132131 32.78° C 62% 1013.1 hPa 0 mm - 148 W/m² -
1788131828 32.78° C 60% 1013.3 hPa 0 mm - 163 W/m² -
1788131528 32.78° C 61% 1013.1 hPa 0 mm - 178 W/m² -
1788131223 32.78° C 57% 1013 hPa 0 mm - 197 W/m² -
1788130917 32.78° C 57% 1013.3 hPa 0 mm - 213 W/m² -
1788130612 32.78° C 58% 1013.1 hPa 0 mm - 234 W/m² -
1788130306 33.33° C 57% 1013.2 hPa 0 mm - 257 W/m² -
1788130005 33.33° C 58% 1013.2 hPa 0 mm - 277 W/m² -
1788129701 33.33° C 59% 1013.2 hPa 0 mm - 298 W/m² -
1788129398 33.33° C 58% 1013.2 hPa 0 mm - 318 W/m² -
1788129098 33.33° C 59% 1013.3 hPa 0 mm - 339 W/m² -
1788128793 33.89° C 59% 1013.2 hPa 0 mm - 361 W/m² -
1788128489 33.89° C 59% 1013.1 hPa 0 mm - 381 W/m² -
1788128188 33.33° C 59% 1012.9 hPa 0 mm - 403 W/m² -
1788127880 33.89° C 58% 1013.2 hPa 0 mm - 422 W/m² -
1788127576 34.44° C 56% 1013 hPa 0 mm - 446 W/m² -
1788127274 34.44° C 52% 1013.1 hPa 0 mm - 473 W/m² -
1788126974 34.44° C 51% 1013.3 hPa 0 mm - 501 W/m² -
1788126668 34.44° C 52% 1013.4 hPa 0 mm - 521 W/m² -
1788126362 34.44° C 53% 1012.9 hPa 0 mm - 535 W/m² -
1788126052 35° C 51% 1013.2 hPa 0 mm - 545 W/m² -
1788125752 35.56° C 50% 1013.2 hPa 0 mm - 567 W/m² -
1788125447 35° C 51% 1013.1 hPa 0 mm - 598 W/m² -
1788125143 35° C 50% 1013.4 hPa 0 mm - 644 W/m² -
1788124848 35.56° C 49% 1013.7 hPa 0 mm - 650 W/m² -

* Rain latest hour (hover to see other rain measurements)
** Current wind speed in m/s (hover to see current wind gust speed)